Weather History for Cortez, CO

Change the Weather History Date:

Monday, June 16, 2014

  Actual Average Record
Temperature  
Mean Temperature 64 °F 65 °F  
Max Temperature 83 °F 85 °F 93 °F (2002)
Min Temperature 45 °F 44 °F 36 °F (2001)
Degree Days  
Heating Degree Days 1 2  
Month to date heating degree days 22 62  
Since 1 June heating degree days 22 62  
Since 1 July heating degree days 6205 6429  
Cooling Degree Days 0 2  
Month to date cooling degree days 17 20  
Year to date cooling degree days 33 25  
Since 1 June cooling degree days 17 20  
Growing Degree Days 14 (Base 50)    
Moisture  
Dew Point 15 °F    
Average Humidity 20    
Maximum Humidity 34    
Minimum Humidity 5    
Precipitation  
Precipitation 0.00 in 0.02 in 0.01 in (1999)
Month to date precipitation T 0.27  
Year to date precipitation 2.99 5.41  
Sea Level Pressure  
Sea Level Pressure 29.74 in    
Wind  
Wind Speed 13 mph (SSW)    
Max Wind Speed 30 mph    
Max Gust Speed 35 mph    
Visibility 10 miles    
Events      
T = Trace of Precipitation, MM = Missing Value Source: NWS Daily Summary

Daily Weather History Graph

Daily Weather History Graph

Search for Another Location

Airport:

Trip Planner

Search our weather history database for the weather conditions in past years. The results will help you decide how hot, cold, wet, or windy it might be!

Date:

Astronomy

Jun. 16, 2014 Rise Set
Actual Time 5:53 AM MDT 8:37 PM MDT
Civil Twilight 5:22 AM MDT 9:08 PM MDT
Nautical Twilight 4:43 AM MDT 9:46 PM MDT
Astronomical Twilight 4:00 AM MDT 10:30 PM MDT
Moon 11:36 PM MDT (6/16) 9:56 AM MDT (6/16)
Length of Visible Light 15h 45m
Length of Day
14h 43m
Waning Gibbous, 82% of the Moon is Illuminated
Jun 16
Waning Gibbous
Jun 19
Last Quarter
Jun 27
New
Jul 5
First Quarter
Jul 12
Full

Hourly Weather History & Observations

Time (MDT) Temp. Windchill Dew Point Humidity Pressure Visibility Wind Dir Wind Speed Gust Speed Precip Events Conditions
12:53 AM 64.0 °F - 12.9 °F 14% 29.71 in 10.0 mi SW 6.9 mph - N/A   Clear
1:53 AM 62.1 °F - 12.9 °F 15% 29.72 in 10.0 mi SSW 15.0 mph - N/A   Clear
2:53 AM 55.9 °F - 15.1 °F 20% 29.74 in 10.0 mi ENE 4.6 mph - N/A   Clear
3:53 AM 52.0 °F - 16.0 °F 24% 29.75 in 10.0 mi South 8.1 mph - N/A   Clear
4:53 AM 46.9 °F - 18.0 °F 32% 29.78 in 10.0 mi ENE 5.8 mph - N/A   Clear
5:53 AM 46.0 °F 43.1 °F 19.9 °F 35% 29.80 in 10.0 mi ENE 5.8 mph - N/A   Clear
6:53 AM 51.1 °F - 21.9 °F 32% 29.81 in 10.0 mi ENE 6.9 mph - N/A   Clear
7:53 AM 61.0 °F - 26.1 °F 26% 29.81 in 10.0 mi ENE 5.8 mph - N/A   Clear
8:53 AM 70.0 °F - 14.0 °F 12% 29.79 in 10.0 mi SSW 17.3 mph - N/A   Clear
9:53 AM 73.0 °F - 12.9 °F 10% 29.78 in 10.0 mi South 13.8 mph 23.0 mph N/A   Clear
10:53 AM 75.0 °F - 12.0 °F 9% 29.77 in 10.0 mi SW 15.0 mph 25.3 mph N/A   Clear
11:53 AM 79.0 °F - 12.0 °F 8% 29.76 in 10.0 mi South 18.4 mph 24.2 mph N/A   Clear
12:53 PM 80.1 °F - 12.0 °F 8% 29.74 in 10.0 mi SW 20.7 mph 25.3 mph N/A   Clear
1:53 PM 81.0 °F - 12.9 °F 8% 29.73 in 10.0 mi SW 20.7 mph 32.2 mph N/A   Clear
2:53 PM 81.0 °F - 12.0 °F 7% 29.73 in 10.0 mi WSW 17.3 mph 27.6 mph N/A   Clear
3:53 PM 82.0 °F - 7.0 °F 6% 29.71 in 10.0 mi SSW 28.8 mph 34.5 mph N/A   Clear
4:53 PM 81.0 °F - 10.9 °F 7% 29.72 in 10.0 mi SW 17.3 mph 33.4 mph N/A   Clear
5:53 PM 79.0 °F - 12.9 °F 8% 29.72 in 10.0 mi SW 13.8 mph 24.2 mph N/A   Scattered Clouds
6:53 PM 78.1 °F - 12.0 °F 8% 29.70 in 10.0 mi SW 16.1 mph 24.2 mph N/A   Clear
7:53 PM 75.0 °F - 15.1 °F 10% 29.69 in 10.0 mi WSW 11.5 mph - N/A   Mostly Cloudy
8:53 PM 70.0 °F - 17.1 °F 13% 29.68 in 10.0 mi SW 8.1 mph - N/A   Overcast
9:53 PM 66.0 °F - 14.0 °F 13% 29.72 in 10.0 mi South 9.2 mph - N/A   Clear
10:53 PM 66.0 °F - 14.0 °F 13% 29.73 in 10.0 mi South 10.4 mph - N/A   Clear
11:53 PM 63.0 °F - 15.1 °F 16% 29.73 in 10.0 mi SSW 6.9 mph - N/A   Clear